Location: Star Hoppers Observatory
(42.7905°N, 83.6127°W)
Time: 00:03:47
(UTC-05:00)

Daily predictions for brighter satellites

Satellite Brightness Start Highest point End
(mag) Time Altitude Azimuth Time Altitude Azimuth Time Altitude Azimuth
USA 234 4.4 04:12:57 10° E 04:17:50 37° NE 04:17:50 37° NE
Cosmos 1980 Rocket 3.8 04:29:11 30° ESE 04:29:11 30° ESE 04:32:18 10° SE
CZ-4C R/B 4.1 04:28:03 23° ESE 04:28:34 23° ESE 04:32:56 10° ENE
Meteor 2-4 Rocket 4.3 04:57:00 51° ENE 04:57:14 51° ENE 05:02:38 10° SSE
Meteor 1-13 Rocket 4.4 05:05:25 73° SE 05:05:25 73° SE 05:10:53 10° SSE
SL-16 R/B 3.6 05:04:54 26° NNE 05:07:04 34° NE 05:12:11 10° ESE
Meteor 1-11 Rocket 4.0 05:05:44 10° S 05:11:39 72° E 05:17:29 10° NNE
Cosmos 2322 Rocket 3.5 05:10:14 25° NNE 05:12:38 36° ENE 05:17:50 10° ESE
Cosmos 2360 4.3 05:14:26 66° SSE 05:14:26 66° SSE 05:19:18 10° SSE
Nadezhda 4 Rocket 4.4 05:11:33 10° S 05:17:33 59° E 05:23:33 10° NNE
USA 267 3.2 05:20:08 10° NE 05:26:32 60° NNW 05:27:04 58° NW
EO 1 Del DPAF 4.4 05:25:14 10° SE 05:28:50 41° ENE 05:29:01 41° ENE
Cosmos 1697 Rocket 4.5 05:33:30 17° SSW 05:33:30 17° SSW 05:34:54 10° SSW
Meteor 1-4 Rocket 4.5 05:29:56 10° SSE 05:33:18 31° E 05:36:40 10° NNE
Meteor 1-5 Rocket 4.2 05:29:23 10° S 05:34:48 73° E 05:40:08 10° NNE
Cosmos 2082 Rocket 3.8 05:38:46 20° N 05:38:46 20° N 05:40:48 10° N
Meteor 2-20 Rocket 4.4 05:31:48 10° S 05:37:55 85° E 05:44:02 10° N
Cosmos 1833 Rocket 4.4 05:42:52 18° N 05:42:52 18° N 05:44:38 10° N
Cosmos 1300 Rocket 3.4 05:38:07 10° S 05:42:25 85° E 05:46:47 10° N
RESURS DK-1 4.2 05:49:57 20° SSW 05:49:57 20° SSW 05:51:28 10° S
Cosmos 1025 Rocket 3.9 05:44:56 16° N 05:48:09 48° ENE 05:52:17 10° SSE
Timation 2 Rocket 4.1 05:41:24 10° SSW 05:48:16 78° WNW 05:55:11 10° NNE
PAYLOAD A 4.4 05:46:31 10° NNE 05:51:58 71° ESE 05:57:17 10° S
Cosmos 1536 Rocket 4.3 05:53:45 37° SSW 05:53:45 37° SSW 05:56:36 10° S
SeaSat 1 2.6 05:51:44 10° NNE 05:56:29 48° WNW 05:56:29 48° WNW
Cosmos 1092 Rocket 3.9 05:52:31 10° S 05:58:39 86° E 06:04:49 10° N
Cosmos 1184 Rocket 4.3 05:57:41 18° NNE 05:59:42 36° ENE 06:02:48 10° SE
USA 234 3.2 05:55:03 10° SE 06:01:38 80° SW 06:05:11 30° NW
COSMO-SKYMED 1 2.4 05:58:05 10° S 06:02:23 67° WSW 06:03:42 42° NW
Meteor 1-23 Rocket 4.1 06:03:39 19° NNW 06:07:35 61° W 06:13:01 10° S
Cosmos 2360 Rocket 3.3 06:03:41 10° NNW 06:09:05 42° ENE 06:14:27 10° SE
NOAA 6 3.9 06:04:34 10° N 06:09:40 64° WNW 06:14:44 10° SSW
CZ-2C R/B 2.5 06:05:03 10° NNE 06:09:54 72° ESE 06:14:34 10° S
Okean-O 2.5 06:05:34 10° N 06:09:58 64° WNW 06:14:21 10° SSW
Cosmos 1980 Rocket 3.1 06:11:00 27° WSW 06:11:00 27° WSW 06:15:20 10° SSW
Cosmos 2026 Rocket 4.3 06:06:25 10° S 06:12:37 69° E 06:18:55 10° NNE
CZ-4C R/B 2.2 06:13:20 24° WSW 06:16:28 55° NW 06:22:25 10° NNE
Okean 1 Rocket 3.0 06:13:56 10° SSW 06:18:16 63° W 06:22:40 10° N
SJ-12 4.2 06:18:32 10° NNE 06:22:36 67° ESE 06:26:38 10° S
Okean 2 3.3 06:19:54 18° NNW 06:22:50 65° W 06:26:53 10° S
Meteor 2-11 Rocket 4.3 06:17:05 10° N 06:23:13 81° W 06:29:17 10° S
Cosmos 1515 3.8 06:22:10 32° NW 06:23:34 49° W 06:27:16 10° S
Cosmos 389 Rocket 4.4 06:20:57 10° SSE 06:24:14 33° E 06:27:31 10° NNE
Cosmos 1975 3.2 06:22:39 10° S 06:26:36 66° E 06:30:34 10° NNE
Cosmos 773 Rocket 4.2 06:22:09 10° SW 06:27:04 46° WNW 06:32:03 10° N
BREEZE-M DEB (TANK) 3.4 06:22:59 22° WNW 06:27:29 48° N 06:30:21 10° E
IDEFIX/ARIANE 42P 2.7 06:31:02 10° N 06:36:03 50° WNW 06:41:05 10° SW
Cosmos 1680 Rocket 3.5 06:32:28 10° SSW 06:37:41 88° WNW 06:42:56 10° NNE
Cosmos 1892 Rocket 3.9 06:33:28 10° N 06:37:51 67° E 06:42:10 10° SSE
ATLAS 5 CENTAUR R/B 4.1 06:38:37 10° NNW 06:43:11 23° NE 06:48:07 10° E
COSMOS 2441 4.3 06:39:46 10° N 06:44:35 69° WNW 06:49:22 10° SSW
ATLAS CENTAUR R/B 3.3 06:43:36 10° S 06:46:52 29° ESE 06:50:06 10° NE
MSX 3.8 06:41:43 10° N 06:47:26 67° WNW 06:53:06 10° SSW
Meteor 1-12 Rocket 4.3 06:44:46 10° S 06:50:29 87° E 06:56:10 10° N
SL-16 R/B 2.8 06:46:49 14° NW 06:51:12 38° WSW 06:56:22 10° S
Cosmos 1371 Rocket 4.2 06:49:32 10° NNW 06:54:47 73° ENE 06:59:57 10° SSE
Cosmos 2322 Rocket 2.9 06:52:05 13° NW 06:56:38 35° WSW 07:01:43 10° SSW
SMAP 3.2 06:55:00 10° NNE 06:59:41 79° ESE 07:04:20 10° S
Thor Agena Rocket 3.6 06:55:02 10° S 07:00:00 60° WSW 07:05:02 10° NNW
Aureole 2 Rocket 4.0 06:57:37 10° N 07:00:38 30° ENE 07:03:26 10° SE
CSL-04 Rocket 3.8 06:56:05 10° NNE 07:01:41 86° ESE 07:07:13 10° SSW
BREEZE-M DEB (TANK) 2.4 07:01:27 10° WSW 07:03:50 73° NNW 07:08:48 10° ENE
Cosmos 1743 2.6 07:00:53 10° SSW 07:04:39 66° W 07:08:28 10° N
Cosmos 1484 Rocket 2.7 07:01:08 10° N 07:05:01 67° WNW 07:08:49 10° SSW
Cosmos 1842 4.2 07:01:51 10° N 07:05:43 50° ENE 07:09:35 10° SSE
Cosmos 2237 4.3 07:02:10 10° NNW 07:07:55 82° ENE 07:13:36 10° SSE
Meteor 1-4 Rocket 4.1 07:05:52 10° WSW 07:08:29 18° WNW 07:11:06 10° NNW
USA 267 4.2 07:03:18 10° NE 07:08:46 29° NNW 07:14:12 10° WNW
SWAS 4.4 07:04:55 10° SSW 07:09:12 77° WNW 07:13:34 10° NNE
Cosmos 2285 Rocket 4.2 07:05:36 10° SW 07:11:43 51° WNW 07:17:52 10° NNE
ALOS 4.3 07:09:00 10° NNE 07:13:13 33° E 07:17:24 10° SSE
Cosmos 1455 Rocket 3.1 07:10:14 10° SSW 07:14:40 70° W 07:19:09 10° N
Cosmos 1544 Rocket 3.7 07:14:35 10° SSW 07:18:57 57° W 07:23:21 10° N
Cosmos 2322 3.7 07:15:01 10° NNW 07:20:39 69° WSW 07:26:15 10° SSE
APEX 4.0 07:19:27 10° WSW 07:22:35 29° NW 07:26:25 10° N
Cosmos 1340 Rocket 2.7 07:20:14 10° NNW 07:24:11 75° W 07:28:09 10° S
Cosmos 2112 Rocket 4.4 07:21:02 10° SW 07:25:52 40° WNW 07:30:47 10° N
Cosmos 1833 4.3 07:20:57 10° SW 07:26:22 51° WNW 07:31:50 10° NNE
SL-16 R/B 4.5 07:26:35 10° N 07:29:46 15° NE 07:32:56 10° ENE
S3M 4.2 07:25:43 10° NNW 07:31:41 51° W 07:37:42 10° SSW
Cosmos 2056 Rocket 3.5 07:27:03 10° NNW 07:32:09 68° WSW 07:37:14 10° S
